User: anonymous   Login
Location: Lafig�re
(44.4503°N, 4.0357°E)
Time: 17:30:49
(UTC+00:00)
Language:

Cosmos 1626 - Orbit

View from above orbital plane
View from above orbital plane
View from above satellite
View from above satellite

Ground track
Ground track

The orbit data is extracted from the following two-line orbital elements,

1 15494U 85009A   20333.52173413  .00002163  00000-0  86854-4 0  9999
2 15494  82.4812  66.6887 0001525   1.6252 358.4989 15.24433742960668
Epoch (UTC): 28 November 2020 12:31:17
Eccentricity: 0.0001525
inclination: 82.4812°
perigee height: 491 km
apogee height: 493 km
right ascension of ascending node: 66.6887°
argument of perigee: 1.6252°
revolutions per day: 15.24433742
mean anomaly at epoch: 358.4989°
orbit number at epoch: 96066

The dashed part of the orbit path shows where the satellite is in the earth's shadow,  

DLR